DAL2194 KMYR-KBWI

Flight info

Callsign DAL2194
Flight time N/A
Altitude 37000
Route ZORDO Q111 RUKRR THHMP RAVNN8
Aircraft B738/M-SDE2E3FGHIRWXY/LB1

Departure

Time 2026-04-20 20:38
Airport Myrtle Beach International Airport (KMYR)

Arrival

Time N/A
Airport Baltimore/Washington International Thurgood Marshall Airport (KBWI)
Time Latitude Longitude Altitude Speed Heading
2026-04-20 20:38 33.86602 -78.65405 15794 ft 324 kts 25°
2026-04-20 20:38 33.90101 -78.62552 17022 ft 332 kts 25°
2026-04-20 20:39 33.92020 -78.60986 17703 ft 334 kts 25°
2026-04-20 20:39 33.93955 -78.59405 18367 ft 337 kts 25°
2026-04-20 20:39 33.95887 -78.57824 19063 ft 338 kts 25°
2026-04-20 20:39 33.97832 -78.56236 19652 ft 342 kts 24°
2026-04-20 20:40 33.99800 -78.54626 20341 ft 344 kts 24°
2026-04-20 20:40 34.01811 -78.52981 20875 ft 349 kts 24°
2026-04-20 20:40 34.03807 -78.51345 21569 ft 349 kts 24°
2026-04-20 20:40 34.05810 -78.49700 22099 ft 353 kts 24°
2026-04-20 20:41 34.07867 -78.48017 22695 ft 355 kts 24°
2026-04-20 20:41 34.09916 -78.46333 23235 ft 359 kts 24°
2026-04-20 20:41 34.11981 -78.44642 23761 ft 363 kts 24°
2026-04-20 20:41 34.14077 -78.42919 24342 ft 364 kts 24°
2026-04-20 20:42 34.16180 -78.41190 24753 ft 370 kts 24°
2026-04-20 20:42 34.18321 -78.39429 25354 ft 370 kts 24°
2026-04-20 20:42 34.20446 -78.37677 25783 ft 374 kts 24°
2026-04-20 20:42 34.22620 -78.35889 26168 ft 379 kts 23°
2026-04-20 20:43 34.24803 -78.34094 26625 ft 382 kts 24°
2026-04-20 20:43 34.27016 -78.32266 27070 ft 384 kts 25°
2026-04-20 20:43 34.29205 -78.30456 27538 ft 385 kts 24°
2026-04-20 20:43 34.31426 -78.28619 27915 ft 388 kts 24°
2026-04-20 20:44 34.33694 -78.26746 28179 ft 395 kts 24°
2026-04-20 20:44 34.35949 -78.24878 28759 ft 392 kts 24°
2026-04-20 20:44 34.38212 -78.23001 29169 ft 394 kts 24°
2026-04-20 20:44 34.40493 -78.21116 29337 ft 401 kts 24°
2026-04-20 20:45 34.42801 -78.19207 29734 ft 402 kts 24°
2026-04-20 20:45 34.45091 -78.17310 30153 ft 403 kts 24°
2026-04-20 20:45 34.47426 -78.15375 30485 ft 406 kts 24°
2026-04-20 20:45 34.49751 -78.13444 30808 ft 407 kts 24°
2026-04-20 20:46 34.52069 -78.11518 31025 ft 411 kts 24°
2026-04-20 20:46 34.54455 -78.09537 31171 ft 416 kts 24°
2026-04-20 20:46 34.56834 -78.07561 31477 ft 417 kts 24°
2026-04-20 20:46 34.59239 -78.05560 31762 ft 417 kts 24°
2026-04-20 20:47 34.61609 -78.03583 31912 ft 422 kts 25°
2026-04-20 20:47 34.64041 -78.01555 32082 ft 426 kts 24°
2026-04-20 20:47 34.66484 -77.99519 32205 ft 430 kts 25°
2026-04-20 20:47 34.68951 -77.97453 32416 ft 432 kts 24°
2026-04-20 20:48 34.71443 -77.95371 32630 ft 431 kts 25°
2026-04-20 20:48 34.73908 -77.93313 32728 ft 437 kts 25°
2026-04-20 20:48 34.76393 -77.91233 33003 ft 436 kts 25°
2026-04-20 20:48 34.78909 -77.89127 33041 ft 443 kts 25°
2026-04-20 20:49 34.81481 -77.86970 33219 ft 445 kts 26°
2026-04-20 20:49 34.84022 -77.84900 33432 ft 445 kts 23°
2026-04-20 20:49 34.86708 -77.82983 33561 ft 442 kts 18°
2026-04-20 20:49 34.89469 -77.81460 33843 ft 436 kts 12°
2026-04-20 20:50 34.92323 -77.80324 34029 ft 431 kts
2026-04-20 20:50 34.95224 -77.79591 34249 ft 426 kts
2026-04-20 20:50 34.98171 -77.79112 34371 ft 428 kts 358°
2026-04-20 20:50 35.01119 -77.78714 34819 ft 423 kts 358°
2026-04-20 20:51 35.04050 -77.78291 34949 ft 428 kts 358°
2026-04-20 20:51 35.07003 -77.77805 35144 ft 431 kts 359°
2026-04-20 20:51 35.09995 -77.77240 35351 ft 434 kts
2026-04-20 20:51 35.12984 -77.76617 35743 ft 432 kts
2026-04-20 20:52 35.15937 -77.75974 35973 ft 433 kts
2026-04-20 20:52 35.18893 -77.75326 36142 ft 436 kts
2026-04-20 20:52 35.21883 -77.74661 36348 ft 437 kts
2026-04-20 20:52 35.24896 -77.73989 36479 ft 440 kts
2026-04-20 20:53 35.27871 -77.73319 36766 ft 439 kts
2026-04-20 20:53 35.30896 -77.72636 37014 ft 438 kts
2026-04-20 20:53 35.33869 -77.71964 37170 ft 439 kts
2026-04-20 20:53 35.36876 -77.71285 37195 ft 441 kts
2026-04-20 20:54 35.42880 -77.69916 37189 ft 438 kts
2026-04-20 20:54 35.48860 -77.68536 37192 ft 437 kts
2026-04-20 20:55 35.54878 -77.67183 37185 ft 437 kts
2026-04-20 20:55 35.60870 -77.65845 37184 ft 439 kts
2026-04-20 20:56 35.66827 -77.64683 37179 ft 433 kts 360°
2026-04-20 20:56 35.72826 -77.63673 37185 ft 435 kts 359°
2026-04-20 20:57 35.78820 -77.62640 37187 ft 435 kts
2026-04-20 20:57 35.84771 -77.61600 37196 ft 433 kts
2026-04-20 20:58 35.90728 -77.60558 37199 ft 435 kts
2026-04-20 20:58 35.96718 -77.59499 37195 ft 436 kts
2026-04-20 20:59 36.02697 -77.58417 37192 ft 434 kts
2026-04-20 20:59 36.08682 -77.57337 37177 ft 435 kts
2026-04-20 21:00 36.14635 -77.56271 37194 ft 435 kts
2026-04-20 21:00 36.20606 -77.55193 37187 ft 434 kts
2026-04-20 21:01 36.26574 -77.54111 37201 ft 432 kts
2026-04-20 21:01 36.32543 -77.53031 37177 ft 432 kts
2026-04-20 21:02 36.38493 -77.51952 37190 ft 434 kts
2026-04-20 21:02 36.44471 -77.50877 37190 ft 433 kts
2026-04-20 21:03 36.50379 -77.49805 37180 ft 431 kts
2026-04-20 21:03 36.56361 -77.48718 37190 ft 434 kts
2026-04-20 21:04 36.62317 -77.47650 37188 ft 432 kts
2026-04-20 21:04 36.68244 -77.46588 37168 ft 432 kts
2026-04-20 21:05 36.74195 -77.45523 37191 ft 432 kts
2026-04-20 21:05 36.80165 -77.44456 37172 ft 430 kts
2026-04-20 21:06 36.86070 -77.43390 37182 ft 432 kts
2026-04-20 21:06 36.92045 -77.42314 37173 ft 431 kts
2026-04-20 21:07 36.97962 -77.41245 37170 ft 430 kts
2026-04-20 21:07 37.00423 -77.40797 37181 ft 430 kts
2026-04-20 21:08 37.03722 -77.40198 37186 ft 430 kts
2026-04-20 21:09 37.09655 -77.39123 37190 ft 429 kts
2026-04-20 21:09 37.15559 -77.38052 37199 ft 428 kts
2026-04-20 21:10 37.21484 -77.36975 37194 ft 429 kts
2026-04-20 21:10 37.27375 -77.35902 37198 ft 430 kts
2026-04-20 21:11 37.33295 -77.34815 37197 ft 430 kts
2026-04-20 21:11 37.39223 -77.33727 37204 ft 428 kts
2026-04-20 21:12 37.42125 -77.33193 37055 ft 422 kts
2026-04-20 21:12 37.45026 -77.32660 36586 ft 422 kts
2026-04-20 21:12 37.47943 -77.32131 35958 ft 426 kts
2026-04-20 21:12 37.50905 -77.31569 35523 ft 423 kts
2026-04-20 21:13 37.53772 -77.30933 35094 ft 422 kts
2026-04-20 21:13 37.56636 -77.30247 34493 ft 424 kts
2026-04-20 21:13 37.59552 -77.29529 33803 ft 429 kts
2026-04-20 21:13 37.62478 -77.28803 33262 ft 428 kts
2026-04-20 21:14 37.65381 -77.28082 32826 ft 425 kts
2026-04-20 21:14 37.68300 -77.27360 32360 ft 422 kts
2026-04-20 21:14 37.71140 -77.26660 32037 ft 415 kts
2026-04-20 21:14 37.74002 -77.25944 31563 ft 414 kts
2026-04-20 21:15 37.77730 -77.24979 30877 ft 415 kts
2026-04-20 21:15 37.79623 -77.24487 30336 ft 421 kts
2026-04-20 21:15 37.82448 -77.23747 29953 ft 412 kts
2026-04-20 21:15 37.85267 -77.23003 29417 ft 411 kts
2026-04-20 21:16 37.88062 -77.22266 29018 ft 405 kts
2026-04-20 21:16 37.90770 -77.21552 28578 ft 400 kts
2026-04-20 21:16 37.93489 -77.20839 28101 ft 397 kts
2026-04-20 21:16 37.96167 -77.20139 27706 ft 391 kts
2026-04-20 21:17 37.98859 -77.19439 27184 ft 389 kts
2026-04-20 21:17 38.01477 -77.18755 26832 ft 382 kts
2026-04-20 21:17 38.04101 -77.18070 26230 ft 383 kts
2026-04-20 21:17 38.06674 -77.17403 25847 ft 377 kts
2026-04-20 21:18 38.09219 -77.16731 25523 ft 370 kts
2026-04-20 21:18 38.11743 -77.16069 24938 ft 370 kts
2026-04-20 21:18 38.14263 -77.15411 24533 ft 365 kts
2026-04-20 21:18 38.16754 -77.14764 23963 ft 364 kts
2026-04-20 21:19 38.19212 -77.14121 23571 ft 357 kts
2026-04-20 21:19 38.21617 -77.13491 22978 ft 357 kts
2026-04-20 21:19 38.24039 -77.12859 22505 ft 353 kts
2026-04-20 21:20 38.28828 -77.11607 21421 ft 349 kts
2026-04-20 21:20 38.31200 -77.10980 21062 ft 342 kts
2026-04-20 21:20 38.33544 -77.10349 20463 ft 343 kts
2026-04-20 21:20 38.35843 -77.09548 19920 ft 347 kts
2026-04-20 21:21 38.38078 -77.08287 19304 ft 359 kts 19°
2026-04-20 21:21 38.40198 -77.06609 18825 ft 360 kts 25°
2026-04-20 21:21 38.42247 -77.04771 18378 ft 357 kts 27°
2026-04-20 21:21 38.44245 -77.02910 17878 ft 355 kts 27°
2026-04-20 21:22 38.46233 -77.01067 17480 ft 349 kts 27°
2026-04-20 21:22 38.48202 -76.99267 16839 ft 350 kts 27°
2026-04-20 21:22 38.50177 -76.97486 16338 ft 348 kts 27°
2026-04-20 21:22 38.52137 -76.95731 15882 ft 345 kts 27°
2026-04-20 21:23 38.54116 -76.93958 15328 ft 344 kts 28°
2026-04-20 21:23 38.56003 -76.92105 14857 ft 344 kts 33°
2026-04-20 21:23 38.57791 -76.90073 14427 ft 343 kts 36°
2026-04-20 21:23 38.59502 -76.87978 13900 ft 343 kts 38°
2026-04-20 21:24 38.61209 -76.85860 13468 ft 339 kts 38°
2026-04-20 21:24 38.62898 -76.83785 12943 ft 338 kts 38°
2026-04-20 21:24 38.64600 -76.81723 12440 ft 336 kts 37°
2026-04-20 21:24 38.66293 -76.79682 12032 ft 331 kts 38°
2026-04-20 21:25 38.67986 -76.77644 11505 ft 331 kts 38°
2026-04-20 21:25 38.69649 -76.75627 11068 ft 329 kts 40°
2026-04-20 21:25 38.71137 -76.73388 10579 ft 332 kts 51°
2026-04-20 21:25 38.72348 -76.70903 10213 ft 330 kts 57°
2026-04-20 21:26 38.73440 -76.68321 9726 ft 329 kts 59°
2026-04-20 21:26 38.74505 -76.65710 9311 ft 326 kts 58°
2026-04-20 21:26 38.75541 -76.63202 9015 ft 319 kts 58°
2026-04-20 21:26 38.76593 -76.60741 8970 ft 304 kts 55°
2026-04-20 21:27 38.77787 -76.58637 8931 ft 285 kts 41°
2026-04-20 21:27 38.79357 -76.57275 8817 ft 262 kts 13°
2026-04-20 21:27 38.81069 -76.56798 8811 ft 240 kts
2026-04-20 21:27 38.82647 -76.56471 8806 ft 221 kts
2026-04-20 21:28 38.84158 -76.56094 8379 ft 223 kts
2026-04-20 21:28 38.85689 -76.55885 7980 ft 218 kts 355°
2026-04-20 21:28 38.87175 -76.55985 7613 ft 214 kts 350°
2026-04-20 21:28 38.88647 -76.56143 7238 ft 212 kts 351°
2026-04-20 21:29 38.90110 -76.56270 6836 ft 210 kts 352°
2026-04-20 21:29 38.91581 -76.56374 6391 ft 211 kts 353°
2026-04-20 21:29 38.93035 -76.56469 6036 ft 209 kts 353°
2026-04-20 21:29 38.94494 -76.56558 5664 ft 208 kts 353°
2026-04-20 21:30 38.95906 -76.56638 5521 ft 195 kts 353°
2026-04-20 21:30 38.97210 -76.56713 5407 ft 181 kts 353°
2026-04-20 21:30 38.98432 -76.56787 5251 ft 171 kts 353°
2026-04-20 21:30 38.99586 -76.56859 5057 ft 164 kts 352°
2026-04-20 21:31 39.00715 -76.56931 4769 ft 162 kts 352°
2026-04-20 21:31 39.01847 -76.57002 4461 ft 162 kts 353°
2026-04-20 21:31 39.02981 -76.57072 4140 ft 162 kts 353°
2026-04-20 21:31 39.04091 -76.57140 3865 ft 159 kts 353°
2026-04-20 21:32 39.05165 -76.57204 3720 ft 149 kts 352°
2026-04-20 21:32 39.06190 -76.57305 3426 ft 147 kts 345°
2026-04-20 21:32 39.07118 -76.57764 3143 ft 143 kts 327°
2026-04-20 21:32 39.07951 -76.58462 2843 ft 138 kts 326°
2026-04-20 21:33 39.08685 -76.59110 2665 ft 119 kts 324°
2026-04-20 21:33 39.09351 -76.59721 2200 ft 121 kts 324°
2026-04-20 21:33 39.10043 -76.60356 1686 ft 122 kts 323°
2026-04-20 21:33 39.10724 -76.60978 1422 ft 118 kts 325°
2026-04-20 21:34 39.11387 -76.61589 1503 ft 117 kts 323°
2026-04-20 21:34 39.12089 -76.62233 1538 ft 125 kts 324°
2026-04-20 21:34 39.12796 -76.62940 1377 ft 130 kts 323°
2026-04-20 21:34 39.13527 -76.63587 979 ft 129 kts 325°
2026-04-20 21:35 39.14229 -76.64242 694 ft 119 kts 323°
2026-04-20 21:35 39.14898 -76.64829 569 ft 115 kts 327°
2026-04-20 21:35 39.15598 -76.65464 485 ft 129 kts 321°
2026-04-20 21:35 39.16345 -76.66180 343 ft 133 kts 329°
2026-04-20 21:36 39.17086 -76.66869 169 ft 126 kts 322°
2026-04-20 21:36 39.17788 -76.67487 139 ft 126 kts 324°
2026-04-20 21:36 39.18527 -76.68140 134 ft 117 kts 348°